Retour au catalogue

STARLINK-35124

ActifCommunicationsVLEO
NORAD 65511·PAYLOAD·🇺🇸 United States

Lancé Sep 5, 2025 depuis Cape Canaveral Space Force Station

Loading…

Prochains Passages (prochaines 24 heures)

TLE

FraisSource: CelesTrak SupGP

Époque: Sep 14, 2026, 22:32 UTC

1 65511C 25198V   26257.93937500  .00009477  00000+0  28000-3 0  2577
2 65511  53.1579 107.4349 0001532  77.6674 106.5947 15.34384434    18

Suivez STARLINK-35124 en temps réel avec AllMySat

Download on the App Store